Location: �A�n Sefra
(34.9681°N, 0.4346°E)
Time: 01:51:31
(UTC+00:00)

Envisat - Pass Details

Date: 21 October 2019
Orbit: 764 x 766 km, 98.1° (Epoch: 13 November)

Event Time Altitude Azimuth Distance (km) Brightness Sun altitude
Rises 18:28:49 0° 179° (S) 3,216 6.2 -15.5°
Reaches altitude 10° 18:31:09 10° 184° (S) 2,294 5.5 -16.0°
Maximum altitude 18:36:05 52° 260° (W) 945 3.9 -17.0°
Drops below altitude 10° 18:41:03 10° 337° (NNW) 2,308 5.8 -18.0°
Sets 18:43:25 0° 342° (NNW) 3,237 6.5 -18.5°
